User: anonymous   Login
Location: Palomar Mountain Lodge
(33.3110°N, 116.8495°W)
Time: 21:49:38
(UTC-07:00)
Language:

COSMOS 2487 - Orbit

View from above orbital plane
View from above orbital plane
View from above satellite
View from above satellite

Ground track
Ground track

The orbit data is extracted from the following two-line orbital elements,

1 39194U 13032A   19111.79818676  .00002494  00000-0  65914-4 0  9998
2 39194  74.7129 199.4334 0003484 258.2040 101.8781 15.38973777325015
Epoch (UTC): 21 April 2019 19:09:23
Eccentricity: 0.0003484
inclination: 74.7129°
perigee height: 447 km
apogee height: 451 km
right ascension of ascending node: 199.4334°
argument of perigee: 258.2040°
revolutions per day: 15.38973777
mean anomaly at epoch: 101.8781°
orbit number at epoch: 32501

The dashed part of the orbit path shows where the satellite is in the earth's shadow,  

DLR